sat.trackr.live / text

‹ back to catalog

STARLINK-36088

NORAD 66941 · 2025-286S

PAYLOAD ACTIVE UNKNOWN

§ Identity

Operator
Country
US
Launch date
2025-12-07
Launch site
AFWTR
Launch vehicle
Mass (kg)
RCS (m²)

Purposes: comms

External: N2YO · Heavens-Above · Gunter

§ Orbital elements

Epoch: 2026-09-20T10:36:00.336384Z

Period
93.85 min
Inclination
53.1580°
Eccentricity
0.0001924
Mean motion
15.34394543 rev/d
Perigee alt
461.4 km
Apogee alt
464.0 km
Semi-major
6,840.9 km
B*
7.0437e-4
RAAN
169.6233°
Arg perigee
83.1669°
Mean anomaly
276.9552°
Rev number
4,529

§ Raw data

STARLINK-360881 66941U 25286S   26263.44167056  .00023493  00000+0  70437-3 0  99952 66941  53.1580 169.6233 0001924  83.1669 276.9552 15.34394543 45296

JSON: /api/v1/satellites/66941 · /tle

For live sub-satellite position, see the globe view (requires WebGL).

§ Visibility from observer

Set your observer location to see the next 7 days of passes ≥ 10°. The values pass through the URL so the page stays shareable.

No JS? Fill the form by hand. The geolocation button needs JavaScript.